Weather in Chandrapur

India     19°56′37″N   79°18′44″E
temp.,
°C
wind,
m/s
gust,
m/s
humid.,
%
clouds,
%
prec.,
mm/h
press.,
hPa
HPBL,
m
4 december, sat
sat423:30+19ne2355100 0.0 101448
02:30+17ne2362100 0.0 101354
05:30+16ne236713 0.0 101356
08:30+21ne24582 0.0 1015267
11:30+28ne34405 0.0 1014983
14:30+30ne333557 0.0 10101371
17:30+24n33505 0.0 101136
20:30+22nne235268 0.0 101337
5 december, sun
sun523:30+20ne22605 0.0 101316
02:30+18ne116745 0.0 101212
05:30+17ne22773 0.0 101333
08:30+22ene25650 0.0 1015309
11:30+29ene34400 0.0 10131097
14:30+31nne23310 0.0 10091671
17:30+25n33460 0.0 101132
20:30+22nne22500 0.0 101317
6 december, mon
mon623:30+20ene12560 0.0 101312
02:30+19ne11595 0.0 101211
05:30+18ne11620 0.0 101312
08:30+22ne23550 0.0 1015212
11:30+30ene12441 0.0 10131066
14:30+31nnw23350 0.0 10102099
17:30+26n33500 0.0 101142
20:30+23n22560 0.0 101412
7 december, tue
tue723:30+21nw11570 0.0 101311
02:30+20nne22610 0.0 101219
05:30+18nne22660 0.0 101329
08:30+22ne23540 0.0 1016268
11:30+29ene23390 0.0 10141031
14:30+31ne22310 0.0 10112239
17:30+25n23470 0.0 101241
20:30+23nnw11510 0.0 101412
8 december, wed
wed823:30+21ne11573 0.0 101411
02:30+19nne23602 0.0 101344
05:30+18nne11645 0.0 101412
08:30+22ene24565 0.0 1016259
11:30+29e234110 0.0 10151080
14:30+31se2233100 0.0 10122334
17:30+25sse2247100 0.0 101224
20:30+23nw1153100 0.0 101511